Weather in Cantu

Italy     45°44′09″N   9°07′41″E
temp.,
°C
wind,
m/s
gust,
m/s
humid.,
%
clouds,
%
prec.,
mm/h
press.,
hPa
HPBL,
m
21 january, thu
thu2101:00+4ne1192100 1.3 101827
04:00+4nne1194100 1.1 101661
07:00+4nnw1194100 3.8 101655
10:00+5ne1189100 2.1 101673
13:00+5nne1192100 4.7 101484
16:00+5ene1193100 1.3 101349
19:00+4ese1196100 3.7 101262
22:00+4se1398100 3.9 1010167
22 january, fri
fri2201:00+4e1298100 7.2 1007124
04:00+5e0198100 2.6 100444
07:00+5nne0097100 3.9 100422
10:00+5e0095100 0.2 100326
13:00+6ene1190100 0.5 100025
16:00+5sse0098100 3.9 99633
19:00+6nne3584100 9.9 993151
22:00+6n2289100 5.2 99098
23 january, sat
sat2301:00+6n3491100 14.8 990145
04:00+5nne2489100 9.1 993158
07:00+5nnw1282100 10.1 99528
10:00+5n1358100 0.0 996155
13:00+8se0143100 0.0 995546
16:00+7s1053100 0.0 995280
19:00+5nne126495 0.0 99662
22:00+3n22610 0.0 99775
24 january, sun
sun2401:00+2n23540 0.0 99883
04:00+2n234933 0.0 99980
07:00+1n234458 0.0 100085
10:00+3nne233858 0.0 1001171
13:00+6sse113452 0.0 1000466
16:00+5s234372 0.0 1000434
19:00+3ene116647 0.0 100322
22:00+3n1259100 0.0 100286
25 january, mon
mon2501:00+2n2449100 0.0 1003118
04:00+1nnw2441100 0.0 1004153
07:00+1n2335100 0.0 1007102
10:00+3nnw353867 0.0 1010241
13:00+7nw362633 0.0 1011770
16:00+6nnw35280 0.0 1012567
19:00+3n35450 0.0 1016159
22:00+1n37360 0.0 1018237